Location: Jaite
(41.2884°N, 81.5737°W)
Time: 11:19:51
(UTC+00:00)

Okean 1 Rocket - Pass Details

Date: 15 November 2025
Orbit: 599 x 628 km, 82.5° (Epoch: 11 December)

Event Time Altitude Azimuth Distance (km) Brightness Sun altitude
Rises 11:09:53 0° 355° (N) 2,866 6.3 -12.3°
Reaches altitude 10° 11:12:08 10° 358° (N) 1,955 5.5 -11.9°
Maximum altitude 11:16:26 66° 81° (E) 658 3.4 -11.2°
Drops below altitude 10° 11:20:40 10° 164° (SSE) 1,933 6.0 -10.4°
Sets 11:22:53 0° 167° (SSE) 2,830 6.9 -10.0°
